owner,sensor,date,latitude,longitude,vertical_datum,sea_water_temperature,qcFlag 
WAVCIS,ioos:station:WAVCIS:CSI15:1,2009-02-01T00:00:00Z,28.8332,-90.8320,10.0,16.72,11111222 
WAVCIS,ioos:station:WAVCIS:CSI15:1,2009-02-01T01:00:00Z,28.8332,-90.8320,10.0,16.65,11111222 
WAVCIS,ioos:station:WAVCIS:CSI15:1,2009-02-01T02:00:00Z,28.8332,-90.8320,10.0,16.69,11111222 
WAVCIS,ioos:station:WAVCIS:CSI15:1,2009-02-01T03:00:00Z,28.8332,-90.8320,10.0,16.72,11111222 
WAVCIS,ioos:station:WAVCIS:CSI15:1,2009-02-01T04:00:00Z,28.8332,-90.8320,10.0,16.57,11111222 
WAVCIS,ioos:station:WAVCIS:CSI15:1,2009-02-01T05:00:00Z,28.8332,-90.8320,10.0,16.57,11111222 
WAVCIS,ioos:station:WAVCIS:CSI15:1,2009-02-01T06:00:00Z,28.8332,-90.8320,10.0,16.37,11111222 
WAVCIS,ioos:station:WAVCIS:CSI15:1,2009-02-01T07:00:00Z,28.8332,-90.8320,10.0,16.64,11111222 
WAVCIS,ioos:station:WAVCIS:CSI15:1,2009-02-01T08:00:00Z,28.8332,-90.8320,10.0,16.65,11111222 
WAVCIS,ioos:station:WAVCIS:CSI15:1,2009-02-01T09:00:00Z,28.8332,-90.8320,10.0,16.7,11111222 
WAVCIS,ioos:station:WAVCIS:CSI15:1,2009-02-01T10:00:00Z,28.8332,-90.8320,10.0,16.72,11111222 
WAVCIS,ioos:station:WAVCIS:CSI15:1,2009-02-01T11:00:00Z,28.8332,-90.8320,10.0,16.68,11111222 
WAVCIS,ioos:station:WAVCIS:CSI15:1,2009-02-01T12:00:00Z,28.8332,-90.8320,10.0,16.66,11111222 
WAVCIS,ioos:station:WAVCIS:CSI15:1,2009-02-01T13:00:00Z,28.8332,-90.8320,10.0,16.64,11111222 
WAVCIS,ioos:station:WAVCIS:CSI15:1,2009-02-01T14:00:00Z,28.8332,-90.8320,10.0,16.65,11111222 
WAVCIS,ioos:station:WAVCIS:CSI15:1,2009-02-01T15:00:00Z,28.8332,-90.8320,10.0,16.67,11111222 
WAVCIS,ioos:station:WAVCIS:CSI15:1,2009-02-01T16:00:00Z,28.8332,-90.8320,10.0,16.72,11111222 
WAVCIS,ioos:station:WAVCIS:CSI15:1,2009-02-01T17:00:00Z,28.8332,-90.8320,10.0,16.75,11111222 
WAVCIS,ioos:station:WAVCIS:CSI15:1,2009-02-01T18:00:00Z,28.8332,-90.8320,10.0,16.78,11111222 
WAVCIS,ioos:station:WAVCIS:CSI15:1,2009-02-01T19:00:00Z,28.8332,-90.8320,10.0,16.73,11111222 
WAVCIS,ioos:station:WAVCIS:CSI15:1,2009-02-01T20:00:00Z,28.8332,-90.8320,10.0,16.78,11111222 
WAVCIS,ioos:station:WAVCIS:CSI15:1,2009-02-01T21:00:00Z,28.8332,-90.8320,10.0,16.78,11111222 
WAVCIS,ioos:station:WAVCIS:CSI15:1,2009-02-01T22:00:00Z,28.8332,-90.8320,10.0,16.81,11111222 
WAVCIS,ioos:station:WAVCIS:CSI15:1,2009-02-01T23:00:00Z,28.8332,-90.8320,10.0,16.84,11111222 
WAVCIS,ioos:station:WAVCIS:CSI15:1,2009-02-02T00:00:00Z,28.8332,-90.8320,10.0,16.81,11111222 
WAVCIS,ioos:station:WAVCIS:CSI15:1,2009-02-02T01:00:00Z,28.8332,-90.8320,10.0,16.71,11111222 
WAVCIS,ioos:station:WAVCIS:CSI15:1,2009-02-02T02:00:00Z,28.8332,-90.8320,10.0,16.7,11111222 
WAVCIS,ioos:station:WAVCIS:CSI15:1,2009-02-02T03:00:00Z,28.8332,-90.8320,10.0,16.69,11111222 
WAVCIS,ioos:station:WAVCIS:CSI15:1,2009-02-02T04:00:00Z,28.8332,-90.8320,10.0,16.67,11111222 
WAVCIS,ioos:station:WAVCIS:CSI15:1,2009-02-02T05:00:00Z,28.8332,-90.8320,10.0,16.68,11111222 
WAVCIS,ioos:station:WAVCIS:CSI15:1,2009-02-02T06:00:00Z,28.8332,-90.8320,10.0,16.67,11111222 
WAVCIS,ioos:station:WAVCIS:CSI15:1,2009-02-02T07:00:00Z,28.8332,-90.8320,10.0,16.67,11111222 
WAVCIS,ioos:station:WAVCIS:CSI15:1,2009-02-02T08:00:00Z,28.8332,-90.8320,10.0,16.67,11111222 
WAVCIS,ioos:station:WAVCIS:CSI15:1,2009-02-02T09:00:00Z,28.8332,-90.8320,10.0,16.68,11111222 
WAVCIS,ioos:station:WAVCIS:CSI15:1,2009-02-02T10:00:00Z,28.8332,-90.8320,10.0,16.69,11111222 
WAVCIS,ioos:station:WAVCIS:CSI15:1,2009-02-02T11:00:00Z,28.8332,-90.8320,10.0,16.67,11111222 
WAVCIS,ioos:station:WAVCIS:CSI15:1,2009-02-02T12:00:00Z,28.8332,-90.8320,10.0,16.63,11111222 
WAVCIS,ioos:station:WAVCIS:CSI15:1,2009-02-02T13:00:00Z,28.8332,-90.8320,10.0,16.6,11111222 
WAVCIS,ioos:station:WAVCIS:CSI15:1,2009-02-02T14:00:00Z,28.8332,-90.8320,10.0,16.55,11111222 
WAVCIS,ioos:station:WAVCIS:CSI15:1,2009-02-02T15:00:00Z,28.8332,-90.8320,10.0,16.6,11111222 
WAVCIS,ioos:station:WAVCIS:CSI15:1,2009-02-02T16:00:00Z,28.8332,-90.8320,10.0,16.67,11111222 
WAVCIS,ioos:station:WAVCIS:CSI15:1,2009-02-02T17:00:00Z,28.8332,-90.8320,10.0,16.67,11111222 
WAVCIS,ioos:station:WAVCIS:CSI15:1,2009-02-02T18:00:00Z,28.8332,-90.8320,10.0,16.68,11111222 
WAVCIS,ioos:station:WAVCIS:CSI15:1,2009-02-02T19:00:00Z,28.8332,-90.8320,10.0,16.72,11111222 
WAVCIS,ioos:station:WAVCIS:CSI15:1,2009-02-02T20:00:00Z,28.8332,-90.8320,10.0,16.81,11111222 
WAVCIS,ioos:station:WAVCIS:CSI15:1,2009-02-02T21:00:00Z,28.8332,-90.8320,10.0,16.81,11111222 
WAVCIS,ioos:station:WAVCIS:CSI15:1,2009-02-02T22:00:00Z,28.8332,-90.8320,10.0,16.84,11111222 
WAVCIS,ioos:station:WAVCIS:CSI15:1,2009-02-02T23:00:00Z,28.8332,-90.8320,10.0,16.82,11111222 
WAVCIS,ioos:station:WAVCIS:CSI15:1,2009-02-03T00:00:00Z,28.8332,-90.8320,10.0,16.82,11111222 
WAVCIS,ioos:station:WAVCIS:CSI15:1,2009-02-03T01:00:00Z,28.8332,-90.8320,10.0,16.78,11111222 
WAVCIS,ioos:station:WAVCIS:CSI15:1,2009-02-03T02:00:00Z,28.8332,-90.8320,10.0,16.77,11111222 
WAVCIS,ioos:station:WAVCIS:CSI15:1,2009-02-03T03:00:00Z,28.8332,-90.8320,10.0,16.7,11111222 
WAVCIS,ioos:station:WAVCIS:CSI15:1,2009-02-03T04:00:00Z,28.8332,-90.8320,10.0,16.73,11111222 
WAVCIS,ioos:station:WAVCIS:CSI15:1,2009-02-03T05:00:00Z,28.8332,-90.8320,10.0,16.63,11111222 
WAVCIS,ioos:station:WAVCIS:CSI15:1,2009-02-03T06:00:00Z,28.8332,-90.8320,10.0,16.59,11111222 
WAVCIS,ioos:station:WAVCIS:CSI15:1,2009-02-03T07:00:00Z,28.8332,-90.8320,10.0,16.52,11111222 
WAVCIS,ioos:station:WAVCIS:CSI15:1,2009-02-03T08:00:00Z,28.8332,-90.8320,10.0,16.28,11111222 
WAVCIS,ioos:station:WAVCIS:CSI15:1,2009-02-03T09:00:00Z,28.8332,-90.8320,10.0,16.09,11111222 
WAVCIS,ioos:station:WAVCIS:CSI15:1,2009-02-03T10:00:00Z,28.8332,-90.8320,10.0,16.13,11111222 
WAVCIS,ioos:station:WAVCIS:CSI15:1,2009-02-03T11:00:00Z,28.8332,-90.8320,10.0,16.11,11111222 
WAVCIS,ioos:station:WAVCIS:CSI15:1,2009-02-03T12:00:00Z,28.8332,-90.8320,10.0,16.1,11111222 
WAVCIS,ioos:station:WAVCIS:CSI15:1,2009-02-03T13:00:00Z,28.8332,-90.8320,10.0,16.12,11111222 
WAVCIS,ioos:station:WAVCIS:CSI15:1,2009-02-03T14:00:00Z,28.8332,-90.8320,10.0,16.15,11111222 
WAVCIS,ioos:station:WAVCIS:CSI15:1,2009-02-03T15:00:00Z,28.8332,-90.8320,10.0,16.2,11111222 
WAVCIS,ioos:station:WAVCIS:CSI15:1,2009-02-03T16:00:00Z,28.8332,-90.8320,10.0,16.23,11111222 
WAVCIS,ioos:station:WAVCIS:CSI15:1,2009-02-03T17:00:00Z,28.8332,-90.8320,10.0,16.38,11111222 
WAVCIS,ioos:station:WAVCIS:CSI15:1,2009-02-03T18:00:00Z,28.8332,-90.8320,10.0,16.41,11111222 
WAVCIS,ioos:station:WAVCIS:CSI15:1,2009-02-03T19:00:00Z,28.8332,-90.8320,10.0,16.47,11111222 
WAVCIS,ioos:station:WAVCIS:CSI15:1,2009-02-03T20:00:00Z,28.8332,-90.8320,10.0,16.5,11111222 
WAVCIS,ioos:station:WAVCIS:CSI15:1,2009-02-03T21:00:00Z,28.8332,-90.8320,10.0,16.55,11111222 
WAVCIS,ioos:station:WAVCIS:CSI15:1,2009-02-03T22:00:00Z,28.8332,-90.8320,10.0,16.58,11111222 
WAVCIS,ioos:station:WAVCIS:CSI15:1,2009-02-03T23:00:00Z,28.8332,-90.8320,10.0,16.59,11111222 
WAVCIS,ioos:station:WAVCIS:CSI15:1,2009-02-04T00:00:00Z,28.8332,-90.8320,10.0,16.59,11111222 
WAVCIS,ioos:station:WAVCIS:CSI15:1,2009-02-04T01:00:00Z,28.8332,-90.8320,10.0,16.6,11111222 
WAVCIS,ioos:station:WAVCIS:CSI15:1,2009-02-04T02:00:00Z,28.8332,-90.8320,10.0,16.6,11111222 
WAVCIS,ioos:station:WAVCIS:CSI15:1,2009-02-04T03:00:00Z,28.8332,-90.8320,10.0,16.43,11111222 
WAVCIS,ioos:station:WAVCIS:CSI15:1,2009-02-04T04:00:00Z,28.8332,-90.8320,10.0,16.3,11111222 
WAVCIS,ioos:station:WAVCIS:CSI15:1,2009-02-04T05:00:00Z,28.8332,-90.8320,10.0,16.33,11111222 
WAVCIS,ioos:station:WAVCIS:CSI15:1,2009-02-04T06:00:00Z,28.8332,-90.8320,10.0,16.31,11111222 
WAVCIS,ioos:station:WAVCIS:CSI15:1,2009-02-04T07:00:00Z,28.8332,-90.8320,10.0,16.28,11111222 
WAVCIS,ioos:station:WAVCIS:CSI15:1,2009-02-04T08:00:00Z,28.8332,-90.8320,10.0,16.27,11111222 
WAVCIS,ioos:station:WAVCIS:CSI15:1,2009-02-04T09:00:00Z,28.8332,-90.8320,10.0,16.2,11111222 
WAVCIS,ioos:station:WAVCIS:CSI15:1,2009-02-04T10:00:00Z,28.8332,-90.8320,10.0,16.08,11111222 
WAVCIS,ioos:station:WAVCIS:CSI15:1,2009-02-04T11:00:00Z,28.8332,-90.8320,10.0,16.1,11111222 
WAVCIS,ioos:station:WAVCIS:CSI15:1,2009-02-04T12:00:00Z,28.8332,-90.8320,10.0,16.15,11111222 
WAVCIS,ioos:station:WAVCIS:CSI15:1,2009-02-04T13:00:00Z,28.8332,-90.8320,10.0,16.21,11111222 
WAVCIS,ioos:station:WAVCIS:CSI15:1,2009-02-04T14:00:00Z,28.8332,-90.8320,10.0,16.22,11111222 
WAVCIS,ioos:station:WAVCIS:CSI15:1,2009-02-04T15:00:00Z,28.8332,-90.8320,10.0,16.2,11111222 
WAVCIS,ioos:station:WAVCIS:CSI15:1,2009-02-04T16:00:00Z,28.8332,-90.8320,10.0,16.35,11111222 
WAVCIS,ioos:station:WAVCIS:CSI15:1,2009-02-04T17:00:00Z,28.8332,-90.8320,10.0,16.48,11111222 
WAVCIS,ioos:station:WAVCIS:CSI15:1,2009-02-04T18:00:00Z,28.8332,-90.8320,10.0,16.59,11111222 
WAVCIS,ioos:station:WAVCIS:CSI15:1,2009-02-04T19:00:00Z,28.8332,-90.8320,10.0,16.66,11111222 
WAVCIS,ioos:station:WAVCIS:CSI15:1,2009-02-04T20:00:00Z,28.8332,-90.8320,10.0,16.68,11111222 
WAVCIS,ioos:station:WAVCIS:CSI15:1,2009-02-04T21:00:00Z,28.8332,-90.8320,10.0,16.71,11111222 
WAVCIS,ioos:station:WAVCIS:CSI15:1,2009-02-04T22:00:00Z,28.8332,-90.8320,10.0,16.72,11111222 
WAVCIS,ioos:station:WAVCIS:CSI15:1,2009-02-04T23:00:00Z,28.8332,-90.8320,10.0,16.69,11111222 
WAVCIS,ioos:station:WAVCIS:CSI15:1,2009-02-05T00:00:00Z,28.8332,-90.8320,10.0,16.65,11111222 
WAVCIS,ioos:station:WAVCIS:CSI15:1,2009-02-05T01:00:00Z,28.8332,-90.8320,10.0,16.61,11111222 
WAVCIS,ioos:station:WAVCIS:CSI15:1,2009-02-05T02:00:00Z,28.8332,-90.8320,10.0,16.56,11111222 
WAVCIS,ioos:station:WAVCIS:CSI15:1,2009-02-05T03:00:00Z,28.8332,-90.8320,10.0,16.53,11111222 
WAVCIS,ioos:station:WAVCIS:CSI15:1,2009-02-05T04:00:00Z,28.8332,-90.8320,10.0,16.45,11111222 
WAVCIS,ioos:station:WAVCIS:CSI15:1,2009-02-05T05:00:00Z,28.8332,-90.8320,10.0,16.36,11111222 
WAVCIS,ioos:station:WAVCIS:CSI15:1,2009-02-05T06:00:00Z,28.8332,-90.8320,10.0,16.29,11111222 
WAVCIS,ioos:station:WAVCIS:CSI15:1,2009-02-05T07:00:00Z,28.8332,-90.8320,10.0,16.21,11111222 
WAVCIS,ioos:station:WAVCIS:CSI15:1,2009-02-05T08:00:00Z,28.8332,-90.8320,10.0,16.2,11111222 
WAVCIS,ioos:station:WAVCIS:CSI15:1,2009-02-05T09:00:00Z,28.8332,-90.8320,10.0,16.15,11111222 
WAVCIS,ioos:station:WAVCIS:CSI15:1,2009-02-05T10:00:00Z,28.8332,-90.8320,10.0,16.07,11111222 
WAVCIS,ioos:station:WAVCIS:CSI15:1,2009-02-05T11:00:00Z,28.8332,-90.8320,10.0,16.03,11111222 
WAVCIS,ioos:station:WAVCIS:CSI15:1,2009-02-05T12:00:00Z,28.8332,-90.8320,10.0,15.98,11111222 
WAVCIS,ioos:station:WAVCIS:CSI15:1,2009-02-05T13:00:00Z,28.8332,-90.8320,10.0,15.98,11111222 
WAVCIS,ioos:station:WAVCIS:CSI15:1,2009-02-05T14:00:00Z,28.8332,-90.8320,10.0,16.03,11111222 
WAVCIS,ioos:station:WAVCIS:CSI15:1,2009-02-05T15:00:00Z,28.8332,-90.8320,10.0,16.09,11111222 
WAVCIS,ioos:station:WAVCIS:CSI15:1,2009-02-05T16:00:00Z,28.8332,-90.8320,10.0,16.13,11111222 
WAVCIS,ioos:station:WAVCIS:CSI15:1,2009-02-05T17:00:00Z,28.8332,-90.8320,10.0,16.18,11111222 
WAVCIS,ioos:station:WAVCIS:CSI15:1,2009-02-05T18:00:00Z,28.8332,-90.8320,10.0,16.2,11111222 
WAVCIS,ioos:station:WAVCIS:CSI15:1,2009-02-05T19:00:00Z,28.8332,-90.8320,10.0,16.24,11111222 
WAVCIS,ioos:station:WAVCIS:CSI15:1,2009-02-05T20:00:00Z,28.8332,-90.8320,10.0,16.26,11111222 
WAVCIS,ioos:station:WAVCIS:CSI15:1,2009-02-05T21:00:00Z,28.8332,-90.8320,10.0,16.31,11111222 
WAVCIS,ioos:station:WAVCIS:CSI15:1,2009-02-05T22:00:00Z,28.8332,-90.8320,10.0,16.33,11111222 
WAVCIS,ioos:station:WAVCIS:CSI15:1,2009-02-05T23:00:00Z,28.8332,-90.8320,10.0,16.36,11111222 
WAVCIS,ioos:station:WAVCIS:CSI15:1,2009-02-06T00:00:00Z,28.8332,-90.8320,10.0,16.43,11111222 
WAVCIS,ioos:station:WAVCIS:CSI15:1,2009-02-06T01:00:00Z,28.8332,-90.8320,10.0,16.41,11111222 
WAVCIS,ioos:station:WAVCIS:CSI15:1,2009-02-06T02:00:00Z,28.8332,-90.8320,10.0,16.37,11111222 
WAVCIS,ioos:station:WAVCIS:CSI15:1,2009-02-06T03:00:00Z,28.8332,-90.8320,10.0,16.34,11111222 
WAVCIS,ioos:station:WAVCIS:CSI15:1,2009-02-06T04:00:00Z,28.8332,-90.8320,10.0,16.31,11111222 
WAVCIS,ioos:station:WAVCIS:CSI15:1,2009-02-06T05:00:00Z,28.8332,-90.8320,10.0,16.22,11111222 
WAVCIS,ioos:station:WAVCIS:CSI15:1,2009-02-06T06:00:00Z,28.8332,-90.8320,10.0,16.25,11111222 
WAVCIS,ioos:station:WAVCIS:CSI15:1,2009-02-06T07:00:00Z,28.8332,-90.8320,10.0,16.19,11111222 
WAVCIS,ioos:station:WAVCIS:CSI15:1,2009-02-06T08:00:00Z,28.8332,-90.8320,10.0,16.17,11111222 
WAVCIS,ioos:station:WAVCIS:CSI15:1,2009-02-06T09:00:00Z,28.8332,-90.8320,10.0,16.12,11111222 
WAVCIS,ioos:station:WAVCIS:CSI15:1,2009-02-06T10:00:00Z,28.8332,-90.8320,10.0,16.05,11111222 
WAVCIS,ioos:station:WAVCIS:CSI15:1,2009-02-06T11:00:00Z,28.8332,-90.8320,10.0,16.01,11111222 
WAVCIS,ioos:station:WAVCIS:CSI15:1,2009-02-06T12:00:00Z,28.8332,-90.8320,10.0,16.0,11111222 
WAVCIS,ioos:station:WAVCIS:CSI15:1,2009-02-06T13:00:00Z,28.8332,-90.8320,10.0,15.96,11111222 
WAVCIS,ioos:station:WAVCIS:CSI15:1,2009-02-06T14:00:00Z,28.8332,-90.8320,10.0,15.98,11111222 
WAVCIS,ioos:station:WAVCIS:CSI15:1,2009-02-06T15:00:00Z,28.8332,-90.8320,10.0,16.05,11111222 
WAVCIS,ioos:station:WAVCIS:CSI15:1,2009-02-06T16:00:00Z,28.8332,-90.8320,10.0,16.05,11111222 
WAVCIS,ioos:station:WAVCIS:CSI15:1,2009-02-06T17:00:00Z,28.8332,-90.8320,10.0,16.21,11111222 
WAVCIS,ioos:station:WAVCIS:CSI15:1,2009-02-06T18:00:00Z,28.8332,-90.8320,10.0,16.26,11111222 
WAVCIS,ioos:station:WAVCIS:CSI15:1,2009-02-06T19:00:00Z,28.8332,-90.8320,10.0,16.56,11111222 
WAVCIS,ioos:station:WAVCIS:CSI15:1,2009-02-06T20:00:00Z,28.8332,-90.8320,10.0,16.68,11111222 
WAVCIS,ioos:station:WAVCIS:CSI15:1,2009-02-06T21:00:00Z,28.8332,-90.8320,10.0,16.67,11111222 
WAVCIS,ioos:station:WAVCIS:CSI15:1,2009-02-06T22:00:00Z,28.8332,-90.8320,10.0,16.74,11111222 
WAVCIS,ioos:station:WAVCIS:CSI15:1,2009-02-06T23:00:00Z,28.8332,-90.8320,10.0,16.78,11111222 
WAVCIS,ioos:station:WAVCIS:CSI15:1,2009-02-07T00:00:00Z,28.8332,-90.8320,10.0,16.71,11111222 
WAVCIS,ioos:station:WAVCIS:CSI15:1,2009-02-07T01:00:00Z,28.8332,-90.8320,10.0,16.71,11111222 
WAVCIS,ioos:station:WAVCIS:CSI15:1,2009-02-07T02:00:00Z,28.8332,-90.8320,10.0,16.63,11111222 
WAVCIS,ioos:station:WAVCIS:CSI15:1,2009-02-07T03:00:00Z,28.8332,-90.8320,10.0,16.56,11111222 
WAVCIS,ioos:station:WAVCIS:CSI15:1,2009-02-07T04:00:00Z,28.8332,-90.8320,10.0,16.59,11111222 
WAVCIS,ioos:station:WAVCIS:CSI15:1,2009-02-07T05:00:00Z,28.8332,-90.8320,10.0,16.46,11111222 
WAVCIS,ioos:station:WAVCIS:CSI15:1,2009-02-07T06:00:00Z,28.8332,-90.8320,10.0,16.4,11111222 
WAVCIS,ioos:station:WAVCIS:CSI15:1,2009-02-07T07:00:00Z,28.8332,-90.8320,10.0,16.39,11111222 
WAVCIS,ioos:station:WAVCIS:CSI15:1,2009-02-07T08:00:00Z,28.8332,-90.8320,10.0,16.3,11111222 
WAVCIS,ioos:station:WAVCIS:CSI15:1,2009-02-07T09:00:00Z,28.8332,-90.8320,10.0,16.42,11111222 
WAVCIS,ioos:station:WAVCIS:CSI15:1,2009-02-07T10:00:00Z,28.8332,-90.8320,10.0,15.99,11111222 
WAVCIS,ioos:station:WAVCIS:CSI15:1,2009-02-07T11:00:00Z,28.8332,-90.8320,10.0,15.89,11111222 
WAVCIS,ioos:station:WAVCIS:CSI15:1,2009-02-07T12:00:00Z,28.8332,-90.8320,10.0,15.6,11111222 
WAVCIS,ioos:station:WAVCIS:CSI15:1,2009-02-07T13:00:00Z,28.8332,-90.8320,10.0,15.48,11111222 
WAVCIS,ioos:station:WAVCIS:CSI15:1,2009-02-07T14:00:00Z,28.8332,-90.8320,10.0,15.6,11111222 
WAVCIS,ioos:station:WAVCIS:CSI15:1,2009-02-07T15:00:00Z,28.8332,-90.8320,10.0,15.87,11111222 
WAVCIS,ioos:station:WAVCIS:CSI15:1,2009-02-07T16:00:00Z,28.8332,-90.8320,10.0,16.43,11111222 
WAVCIS,ioos:station:WAVCIS:CSI15:1,2009-02-07T17:00:00Z,28.8332,-90.8320,10.0,16.79,11111222 
WAVCIS,ioos:station:WAVCIS:CSI15:1,2009-02-07T18:00:00Z,28.8332,-90.8320,10.0,16.99,11111222 
WAVCIS,ioos:station:WAVCIS:CSI15:1,2009-02-07T19:00:00Z,28.8332,-90.8320,10.0,17.08,11111222 
WAVCIS,ioos:station:WAVCIS:CSI15:1,2009-02-07T20:00:00Z,28.8332,-90.8320,10.0,17.14,11111222 
WAVCIS,ioos:station:WAVCIS:CSI15:1,2009-02-07T21:00:00Z,28.8332,-90.8320,10.0,17.21,11111222 
WAVCIS,ioos:station:WAVCIS:CSI15:1,2009-02-07T22:00:00Z,28.8332,-90.8320,10.0,17.33,11111222 
WAVCIS,ioos:station:WAVCIS:CSI15:1,2009-02-07T23:00:00Z,28.8332,-90.8320,10.0,17.15,11111222 
WAVCIS,ioos:station:WAVCIS:CSI15:1,2009-02-08T00:00:00Z,28.8332,-90.8320,10.0,17.25,11111222 
WAVCIS,ioos:station:WAVCIS:CSI15:1,2009-02-08T01:00:00Z,28.8332,-90.8320,10.0,16.92,11111222 
WAVCIS,ioos:station:WAVCIS:CSI15:1,2009-02-08T02:00:00Z,28.8332,-90.8320,10.0,16.89,11111222 
WAVCIS,ioos:station:WAVCIS:CSI15:1,2009-02-08T03:00:00Z,28.8332,-90.8320,10.0,16.95,11111222 
WAVCIS,ioos:station:WAVCIS:CSI15:1,2009-02-08T04:00:00Z,28.8332,-90.8320,10.0,17.24,11111222 
WAVCIS,ioos:station:WAVCIS:CSI15:1,2009-02-08T05:00:00Z,28.8332,-90.8320,10.0,17.41,11111222 
WAVCIS,ioos:station:WAVCIS:CSI15:1,2009-02-08T06:00:00Z,28.8332,-90.8320,10.0,17.62,11111222 
WAVCIS,ioos:station:WAVCIS:CSI15:1,2009-02-08T07:00:00Z,28.8332,-90.8320,10.0,17.63,11111222 
WAVCIS,ioos:station:WAVCIS:CSI15:1,2009-02-08T08:00:00Z,28.8332,-90.8320,10.0,17.64,11111222 
WAVCIS,ioos:station:WAVCIS:CSI15:1,2009-02-08T09:00:00Z,28.8332,-90.8320,10.0,17.62,11111222 
WAVCIS,ioos:station:WAVCIS:CSI15:1,2009-02-08T10:00:00Z,28.8332,-90.8320,10.0,17.53,11111222 
WAVCIS,ioos:station:WAVCIS:CSI15:1,2009-02-08T11:00:00Z,28.8332,-90.8320,10.0,17.25,11111222 
WAVCIS,ioos:station:WAVCIS:CSI15:1,2009-02-08T12:00:00Z,28.8332,-90.8320,10.0,17.0,11111222 
WAVCIS,ioos:station:WAVCIS:CSI15:1,2009-02-08T13:00:00Z,28.8332,-90.8320,10.0,17.22,11111222 
WAVCIS,ioos:station:WAVCIS:CSI15:1,2009-02-08T14:00:00Z,28.8332,-90.8320,10.0,17.49,11111222 
WAVCIS,ioos:station:WAVCIS:CSI15:1,2009-02-08T15:00:00Z,28.8332,-90.8320,10.0,17.57,11111222 
WAVCIS,ioos:station:WAVCIS:CSI15:1,2009-02-08T16:00:00Z,28.8332,-90.8320,10.0,17.61,11111222 
WAVCIS,ioos:station:WAVCIS:CSI15:1,2009-02-08T17:00:00Z,28.8332,-90.8320,10.0,17.88,11111222 
WAVCIS,ioos:station:WAVCIS:CSI15:1,2009-02-08T18:00:00Z,28.8332,-90.8320,10.0,18.06,11111222 
WAVCIS,ioos:station:WAVCIS:CSI15:1,2009-02-08T19:00:00Z,28.8332,-90.8320,10.0,18.18,11111222 
WAVCIS,ioos:station:WAVCIS:CSI15:1,2009-02-08T20:00:00Z,28.8332,-90.8320,10.0,18.35,11111222 
WAVCIS,ioos:station:WAVCIS:CSI15:1,2009-02-08T21:00:00Z,28.8332,-90.8320,10.0,18.34,11111222 
WAVCIS,ioos:station:WAVCIS:CSI15:1,2009-02-08T22:00:00Z,28.8332,-90.8320,10.0,18.31,11111222 
WAVCIS,ioos:station:WAVCIS:CSI15:1,2009-02-08T23:00:00Z,28.8332,-90.8320,10.0,18.27,11111222 
WAVCIS,ioos:station:WAVCIS:CSI15:1,2009-02-09T00:00:00Z,28.8332,-90.8320,10.0,18.21,11111222 
WAVCIS,ioos:station:WAVCIS:CSI15:1,2009-02-09T01:00:00Z,28.8332,-90.8320,10.0,18.17,11111222 
WAVCIS,ioos:station:WAVCIS:CSI15:1,2009-02-09T02:00:00Z,28.8332,-90.8320,10.0,18.15,11111222 
WAVCIS,ioos:station:WAVCIS:CSI15:1,2009-02-09T03:00:00Z,28.8332,-90.8320,10.0,18.17,11111222 
WAVCIS,ioos:station:WAVCIS:CSI15:1,2009-02-09T04:00:00Z,28.8332,-90.8320,10.0,18.15,11111222 
WAVCIS,ioos:station:WAVCIS:CSI15:1,2009-02-09T05:00:00Z,28.8332,-90.8320,10.0,18.14,11111222 
WAVCIS,ioos:station:WAVCIS:CSI15:1,2009-02-09T06:00:00Z,28.8332,-90.8320,10.0,18.15,11111222 
WAVCIS,ioos:station:WAVCIS:CSI15:1,2009-02-09T07:00:00Z,28.8332,-90.8320,10.0,18.14,11111222 
WAVCIS,ioos:station:WAVCIS:CSI15:1,2009-02-09T08:00:00Z,28.8332,-90.8320,10.0,18.14,11111222 
WAVCIS,ioos:station:WAVCIS:CSI15:1,2009-02-09T09:00:00Z,28.8332,-90.8320,10.0,18.14,11111222 
WAVCIS,ioos:station:WAVCIS:CSI15:1,2009-02-09T10:00:00Z,28.8332,-90.8320,10.0,18.14,11111222 
WAVCIS,ioos:station:WAVCIS:CSI15:1,2009-02-09T11:00:00Z,28.8332,-90.8320,10.0,18.14,11111222 
WAVCIS,ioos:station:WAVCIS:CSI15:1,2009-02-09T12:00:00Z,28.8332,-90.8320,10.0,18.14,11111222 
WAVCIS,ioos:station:WAVCIS:CSI15:1,2009-02-09T13:00:00Z,28.8332,-90.8320,10.0,18.12,11111222 
WAVCIS,ioos:station:WAVCIS:CSI15:1,2009-02-09T14:00:00Z,28.8332,-90.8320,10.0,18.12,11111222 
WAVCIS,ioos:station:WAVCIS:CSI15:1,2009-02-09T15:00:00Z,28.8332,-90.8320,10.0,17.94,11111222 
WAVCIS,ioos:station:WAVCIS:CSI15:1,2009-02-09T16:00:00Z,28.8332,-90.8320,10.0,18.05,11111222 
WAVCIS,ioos:station:WAVCIS:CSI15:1,2009-02-09T17:00:00Z,28.8332,-90.8320,10.0,18.1,11111222 
WAVCIS,ioos:station:WAVCIS:CSI15:1,2009-02-09T18:00:00Z,28.8332,-90.8320,10.0,18.14,11111222 
WAVCIS,ioos:station:WAVCIS:CSI15:1,2009-02-09T19:00:00Z,28.8332,-90.8320,10.0,18.19,11111222 
WAVCIS,ioos:station:WAVCIS:CSI15:1,2009-02-09T20:00:00Z,28.8332,-90.8320,10.0,18.22,11111222 
WAVCIS,ioos:station:WAVCIS:CSI15:1,2009-02-09T21:00:00Z,28.8332,-90.8320,10.0,18.38,11111222 
WAVCIS,ioos:station:WAVCIS:CSI15:1,2009-02-09T22:00:00Z,28.8332,-90.8320,10.0,18.44,11111222 
WAVCIS,ioos:station:WAVCIS:CSI15:1,2009-02-09T23:00:00Z,28.8332,-90.8320,10.0,18.53,11111222 
WAVCIS,ioos:station:WAVCIS:CSI15:1,2009-02-10T00:00:00Z,28.8332,-90.8320,10.0,18.51,11111222 
WAVCIS,ioos:station:WAVCIS:CSI15:1,2009-02-10T01:00:00Z,28.8332,-90.8320,10.0,18.51,11111222 
WAVCIS,ioos:station:WAVCIS:CSI15:1,2009-02-10T02:00:00Z,28.8332,-90.8320,10.0,18.51,11111222 
WAVCIS,ioos:station:WAVCIS:CSI15:1,2009-02-10T03:00:00Z,28.8332,-90.8320,10.0,18.51,11111222 
WAVCIS,ioos:station:WAVCIS:CSI15:1,2009-02-10T04:00:00Z,28.8332,-90.8320,10.0,18.54,11111222 
WAVCIS,ioos:station:WAVCIS:CSI15:1,2009-02-10T05:00:00Z,28.8332,-90.8320,10.0,18.48,11111222 
WAVCIS,ioos:station:WAVCIS:CSI15:1,2009-02-10T06:00:00Z,28.8332,-90.8320,10.0,18.49,11111222 
WAVCIS,ioos:station:WAVCIS:CSI15:1,2009-02-10T07:00:00Z,28.8332,-90.8320,10.0,18.49,11111222 
WAVCIS,ioos:station:WAVCIS:CSI15:1,2009-02-10T08:00:00Z,28.8332,-90.8320,10.0,18.49,11111222 
WAVCIS,ioos:station:WAVCIS:CSI15:1,2009-02-10T09:00:00Z,28.8332,-90.8320,10.0,18.52,11111222 
WAVCIS,ioos:station:WAVCIS:CSI15:1,2009-02-10T10:00:00Z,28.8332,-90.8320,10.0,18.45,11111222 
WAVCIS,ioos:station:WAVCIS:CSI15:1,2009-02-10T11:00:00Z,28.8332,-90.8320,10.0,18.49,11111222 
WAVCIS,ioos:station:WAVCIS:CSI15:1,2009-02-10T12:00:00Z,28.8332,-90.8320,10.0,18.49,11111222 
WAVCIS,ioos:station:WAVCIS:CSI15:1,2009-02-10T13:00:00Z,28.8332,-90.8320,10.0,18.5,11111222 
WAVCIS,ioos:station:WAVCIS:CSI15:1,2009-02-10T14:00:00Z,28.8332,-90.8320,10.0,18.51,11111222 
WAVCIS,ioos:station:WAVCIS:CSI15:1,2009-02-10T15:00:00Z,28.8332,-90.8320,10.0,18.5,11111222 
WAVCIS,ioos:station:WAVCIS:CSI15:1,2009-02-10T16:00:00Z,28.8332,-90.8320,10.0,18.53,11111222 
WAVCIS,ioos:station:WAVCIS:CSI15:1,2009-02-10T17:00:00Z,28.8332,-90.8320,10.0,18.53,11111222 
WAVCIS,ioos:station:WAVCIS:CSI15:1,2009-02-10T18:00:00Z,28.8332,-90.8320,10.0,18.48,11111222 
WAVCIS,ioos:station:WAVCIS:CSI15:1,2009-02-10T19:00:00Z,28.8332,-90.8320,10.0,18.57,11111222 
WAVCIS,ioos:station:WAVCIS:CSI15:1,2009-02-10T20:00:00Z,28.8332,-90.8320,10.0,18.55,11111222 
WAVCIS,ioos:station:WAVCIS:CSI15:1,2009-02-10T21:00:00Z,28.8332,-90.8320,10.0,18.53,11111222 
WAVCIS,ioos:station:WAVCIS:CSI15:1,2009-02-10T22:00:00Z,28.8332,-90.8320,10.0,18.58,11111222 
WAVCIS,ioos:station:WAVCIS:CSI15:1,2009-02-10T23:00:00Z,28.8332,-90.8320,10.0,18.62,11111222 
WAVCIS,ioos:station:WAVCIS:CSI15:1,2009-02-11T00:00:00Z,28.8332,-90.8320,10.0,18.7,11111222 
WAVCIS,ioos:station:WAVCIS:CSI15:1,2009-02-11T01:00:00Z,28.8332,-90.8320,10.0,18.74,11111222 
WAVCIS,ioos:station:WAVCIS:CSI15:1,2009-02-11T02:00:00Z,28.8332,-90.8320,10.0,18.58,11111222 
WAVCIS,ioos:station:WAVCIS:CSI15:1,2009-02-11T03:00:00Z,28.8332,-90.8320,10.0,18.56,11111222 
WAVCIS,ioos:station:WAVCIS:CSI15:1,2009-02-11T04:00:00Z,28.8332,-90.8320,10.0,18.58,11111222 
WAVCIS,ioos:station:WAVCIS:CSI15:1,2009-02-11T05:00:00Z,28.8332,-90.8320,10.0,18.57,11111222 
WAVCIS,ioos:station:WAVCIS:CSI15:1,2009-02-11T06:00:00Z,28.8332,-90.8320,10.0,18.58,11111222 
WAVCIS,ioos:station:WAVCIS:CSI15:1,2009-02-11T07:00:00Z,28.8332,-90.8320,10.0,18.67,11111222 
WAVCIS,ioos:station:WAVCIS:CSI15:1,2009-02-11T08:00:00Z,28.8332,-90.8320,10.0,18.85,11111222 
WAVCIS,ioos:station:WAVCIS:CSI15:1,2009-02-11T09:00:00Z,28.8332,-90.8320,10.0,18.85,11111222 
WAVCIS,ioos:station:WAVCIS:CSI15:1,2009-02-11T10:00:00Z,28.8332,-90.8320,10.0,18.73,11111222 
WAVCIS,ioos:station:WAVCIS:CSI15:1,2009-02-11T11:00:00Z,28.8332,-90.8320,10.0,18.72,11111222 
WAVCIS,ioos:station:WAVCIS:CSI15:1,2009-02-11T12:00:00Z,28.8332,-90.8320,10.0,18.71,11111222 
WAVCIS,ioos:station:WAVCIS:CSI15:1,2009-02-11T13:00:00Z,28.8332,-90.8320,10.0,18.74,11111222 